Flag for U.S.A. Weather past 2 weeks in Burbank, California, U.S.A.

Now
75 °F

Sunny.


Feels Like: 78 °F
Forecast: 61 / 82 °F
Wind: 8 mph from South

Location: Burbank-Glendale-Pasadena Airport

Current Time: Aug 23, 2014 at 12:07:05 PM

Latest Report: Aug 23, 2014 at 10:53 AM


Visibility: 10 mi

Pressure: 29.93 "Hg

Humidity: 54%

Dew point: 57 °F

Location of BurbankLocation

Historic Weather in Burbank — Graph

°F

Burbank temperature yesterday

Maximum temperature yesterday: 85 °F (at 4:53 PM)
Minimum temperature yesterday: 67 °F (at 5:53 AM)
Average temperature yesterday: 74 °F

Past Weeks' High & Low Weather Summary

 TemperatureHumidityPressure
High94 °F (Aug 15, 2:53 PM)90% (Aug 10, 6:53 AM)29.98 "Hg (Aug 10, 6:53 AM)
Low63 °F (Aug 13, 4:53 AM)17% (Aug 16, 2:53 PM)29.74 "Hg (Aug 18, 3:53 PM)
Average75 °F58%29.89 "Hg
* Reported Aug 8 10:53 AM — Aug 23 10:53 AM, Burbank, Weather by CustomWeather, © 2014

Note: Actual official high and low records may vary slightly from our data, if they occured in-between our weather recording intervals... More about our weather records

Advertising

Burbank weather history for previous 24 hours

 ConditionsComfort  
Time TempWeatherWind HumidityBarometerVisibility
10:53 AM
Aug 23
75 °FSunny.8 mph54%29.93 "Hg10 mi
9:53 AM72 °FSunny.No wind61%29.94 "Hg10 mi
8:53 AM69 °FScattered clouds.3 mph70%29.94 "Hg6 mi
7:53 AM66 °FOvercast.5 mph78%29.94 "Hg7 mi
6:53 AM66 °FOvercast.3 mph78%29.93 "Hg7 mi
5:53 AM65 °FPassing clouds.No wind78%29.91 "Hg10 mi
4:53 AM65 °FPassing clouds.3 mph81%29.91 "Hg10 mi
3:53 AM66 °FOvercast.3 mph81%29.91 "Hg9 mi
2:53 AM66 °FLow clouds.3 mph84%29.90 "Hg8 mi
1:53 AM65 °FFog.5 mph87%29.91 "Hg6 mi
12:53 AM66 °FClear.3 mph84%29.91 "Hg10 mi
11:53 PM
Aug 22
68 °FClear.5 mph82%29.92 "Hg10 mi
10:53 PM67 °FClear.3 mph85%29.92 "Hg10 mi
9:53 PM67 °FClear.6 mph85%29.92 "Hg10 mi
8:53 PM68 °FClear.7 mph82%29.91 "Hg10 mi
7:53 PM72 °FSunny.8 mph68%29.88 "Hg10 mi
6:53 PM77 °FSunny.9 mph52%29.87 "Hg10 mi
5:53 PM83 °FSunny.12 mph26%29.87 "Hg10 mi
4:53 PM85 °FSunny.6 mph35%29.87 "Hg10 mi
3:53 PM83 °FSunny.8 mph43%29.88 "Hg10 mi
2:53 PM84 °FSunny.9 mph43%29.89 "Hg10 mi
1:53 PM83 °FSunny.13 mph48%29.91 "Hg10 mi
12:53 PM82 °FSunny.7 mph49%29.92 "Hg10 mi
Weather by CustomWeather, © 2014

See weather overviewHow to use our weather pages